Location: Bruderhein
(53.8035°N, 112.9265°W)
Time: 12:59:09
(UTC+00:00)

deb Delta 139 - Pass Details

Date: 09 December 2023
Orbit: 731 x 794 km, 98.6° (Epoch: 01 March)

Event Time Altitude Azimuth Distance (km) Brightness Sun altitude
Rises 13:11:00 0° 28° (NNE) 3,186 ? -20.1°
Reaches altitude 10° 13:14:17 10° 51° (NE) 2,249 ? -19.6°
Maximum altitude 13:17:08 15° 86° (E) 1,905 ? -19.2°
Drops below altitude 10° 13:19:57 10° 122° (ESE) 2,233 ? -18.8°
Sets 13:23:11 0° 145° (SE) 3,149 ? -18.4°
